Time,TemperatureF,DewpointF,PressureIn,WindDirection,WindDirectionDegrees,WindSpeedMPH,WindSpeedGustMPH,Humidity,HourlyPrecipIn,Conditions,Clouds,dailyrainin,SoftwareType,DateUTC
2013-02-04 00:00:00,23.8,20.2,29.75,SSW,207,0.0,1.0,86,0.00,,,0.00,WeatherCatV1.11B39,2013-02-04 05:00:00,
2013-02-04 00:05:00,23.8,20.5,29.75,SSW,207,0.0,1.0,87,0.00,,,0.00,WeatherCatV1.11B39,2013-02-04 05:05:00,
2013-02-04 00:10:00,23.7,20.7,29.75,SW,222,0.0,1.0,88,0.00,,,0.00,WeatherCatV1.11B39,2013-02-04 05:10:00,
2013-02-04 00:15:00,23.7,20.7,29.75,SW,222,0.0,0.0,88,0.00,,,0.00,WeatherCatV1.11B39,2013-02-04 05:15:00,
2013-02-04 00:20:00,23.7,20.7,29.75,East,98,0.0,1.0,88,0.00,,,0.00,WeatherCatV1.11B39,2013-02-04 05:20:00,
2013-02-04 00:25:00,23.7,20.9,29.75,SW,228,0.0,0.0,89,0.00,,,0.00,WeatherCatV1.11B39,2013-02-04 05:25:00,
2013-02-04 00:30:00,23.7,20.9,29.75,SW,227,0.0,1.0,89,0.00,,,0.00,WeatherCatV1.11B39,2013-02-04 05:30:00,
2013-02-04 00:35:00,23.6,20.8,29.75,SW,228,0.0,0.0,89,0.00,,,0.00,WeatherCatV1.11B39,2013-02-04 05:35:00,
2013-02-04 00:40:00,23.6,20.8,29.75,SW,227,0.0,0.0,89,0.00,,,0.00,WeatherCatV1.11B39,2013-02-04 05:40:00,
2013-02-04 00:45:00,23.6,20.8,29.75,SW,228,0.0,1.0,89,0.00,,,0.00,WeatherCatV1.11B39,2013-02-04 05:45:00,
2013-02-04 00:50:00,23.6,20.8,29.75,SW,227,0.0,0.0,89,0.00,,,0.00,WeatherCatV1.11B39,2013-02-04 05:50:00,
2013-02-04 00:55:00,23.5,20.7,29.75,SW,228,0.0,0.0,89,0.00,,,0.00,WeatherCatV1.11B39,2013-02-04 05:55:00,
2013-02-04 01:00:00,23.4,20.9,29.75,SW,228,0.0,0.0,90,0.00,,,0.00,WeatherCatV1.11B39,2013-02-04 06:00:00,
2013-02-04 01:05:00,23.3,20.8,29.75,SW,228,0.0,0.0,90,0.00,,,0.00,WeatherCatV1.11B39,2013-02-04 06:05:00,
2013-02-04 01:10:00,23.3,20.8,29.75,SW,227,0.0,0.0,90,0.00,,,0.00,WeatherCatV1.11B39,2013-02-04 06:10:00,
2013-02-04 01:15:00,23.2,20.7,29.75,SW,228,0.0,0.0,90,0.00,,,0.00,WeatherCatV1.11B39,2013-02-04 06:15:00,
2013-02-04 01:20:00,23.2,20.7,29.75,SW,228,0.0,0.0,90,0.00,,,0.00,WeatherCatV1.11B39,2013-02-04 06:20:00,
2013-02-04 01:25:00,23.1,20.6,29.75,SW,227,0.0,1.0,90,0.00,,,0.00,WeatherCatV1.11B39,2013-02-04 06:25:00,
2013-02-04 01:30:00,23.2,20.7,29.75,SW,228,0.0,0.0,90,0.00,,,0.00,WeatherCatV1.11B39,2013-02-04 06:30:00,
2013-02-04 01:35:00,23.2,21.0,29.75,SW,228,0.0,0.0,91,0.00,,,0.00,WeatherCatV1.11B39,2013-02-04 06:35:00,
2013-02-04 01:40:00,23.1,20.6,29.75,SW,228,0.0,0.0,90,0.00,,,0.00,WeatherCatV1.11B39,2013-02-04 06:40:00,
2013-02-04 01:45:00,23.0,20.5,29.75,SW,228,0.0,0.0,90,0.00,,,0.00,WeatherCatV1.11B39,2013-02-04 06:45:00,
2013-02-04 01:50:00,22.9,20.4,29.75,SW,228,0.0,0.0,90,0.00,,,0.00,WeatherCatV1.11B39,2013-02-04 06:50:00,
2013-02-04 01:55:00,22.8,20.3,29.75,SW,228,0.0,0.0,90,0.00,,,0.00,WeatherCatV1.11B39,2013-02-04 06:55:00,
2013-02-04 02:00:00,22.6,20.1,29.75,North,349,0.0,1.0,90,0.00,,,0.00,WeatherCatV1.11B39,2013-02-04 07:00:00,
2013-02-04 02:05:00,22.4,19.9,29.75,North,349,0.0,0.0,90,0.00,,,0.00,WeatherCatV1.11B39,2013-02-04 07:05:00,
2013-02-04 02:10:00,22.2,19.7,29.75,North,350,0.0,0.0,90,0.00,,,0.00,WeatherCatV1.11B39,2013-02-04 07:10:00,
2013-02-04 02:15:00,22.1,19.6,29.75,South,173,0.0,0.0,90,0.00,,,0.00,WeatherCatV1.11B39,2013-02-04 07:15:00,
2013-02-04 02:20:00,22.1,19.6,29.75,SSW,208,0.0,1.0,90,0.00,,,0.00,WeatherCatV1.11B39,2013-02-04 07:20:00,
2013-02-04 02:25:00,22.3,19.6,29.75,SSW,212,0.0,1.0,89,0.00,,,0.00,WeatherCatV1.11B39,2013-02-04 07:25:00,
2013-02-04 02:30:00,22.4,19.4,29.74,South,187,0.0,0.0,88,0.00,,,0.00,WeatherCatV1.11B39,2013-02-04 07:30:00,
2013-02-04 02:35:00,22.4,19.4,29.74,WSW,249,0.0,1.0,88,0.00,,,0.00,WeatherCatV1.11B39,2013-02-04 07:35:00,
2013-02-04 02:40:00,22.3,19.0,29.74,WSW,257,0.0,0.0,87,0.00,,,0.00,WeatherCatV1.11B39,2013-02-04 07:40:00,
2013-02-04 02:45:00,22.3,18.8,29.74,NNW,330,0.0,0.0,86,0.00,,,0.00,WeatherCatV1.11B39,2013-02-04 07:45:00,
2013-02-04 02:50:00,22.4,18.9,29.74,NE,37,1.0,2.0,86,0.00,,,0.00,WeatherCatV1.11B39,2013-02-04 07:50:00,
2013-02-04 02:55:00,22.5,18.4,29.74,North,5,1.0,1.0,84,0.00,,,0.00,WeatherCatV1.11B39,2013-02-04 07:55:00,
2013-02-04 03:00:00,22.4,18.3,29.74,North,6,0.0,0.0,84,0.00,,,0.00,WeatherCatV1.11B39,2013-02-04 08:00:00,
2013-02-04 03:05:00,22.4,18.0,29.74,SW,232,0.0,3.0,83,0.00,,,0.00,WeatherCatV1.11B39,2013-02-04 08:05:00,
2013-02-04 03:10:00,22.4,17.8,29.74,North,349,0.0,3.0,82,0.00,,,0.00,WeatherCatV1.11B39,2013-02-04 08:10:00,
2013-02-04 03:15:00,22.4,17.8,29.74,North,351,0.0,2.0,82,0.00,,,0.00,WeatherCatV1.11B39,2013-02-04 08:15:00,
2013-02-04 03:20:00,22.2,17.3,29.74,ESE,119,0.0,2.0,81,0.00,,,0.00,WeatherCatV1.11B39,2013-02-04 08:20:00,
2013-02-04 03:25:00,22.1,17.2,29.74,SW,215,0.0,1.0,81,0.00,,,0.00,WeatherCatV1.11B39,2013-02-04 08:25:00,
2013-02-04 03:30:00,21.9,17.0,29.74,SW,216,0.0,0.0,81,0.00,,,0.00,WeatherCatV1.11B39,2013-02-04 08:30:00,
2013-02-04 03:35:00,21.6,16.7,29.74,SSE,150,0.0,0.0,81,0.00,,,0.00,WeatherCatV1.11B39,2013-02-04 08:35:00,
2013-02-04 03:40:00,21.3,16.4,29.74,SSE,148,0.0,0.0,81,0.00,,,0.00,WeatherCatV1.11B39,2013-02-04 08:40:00,
2013-02-04 03:45:00,21.1,16.2,29.74,SW,217,0.0,1.0,81,0.00,,,0.00,WeatherCatV1.11B39,2013-02-04 08:45:00,
2013-02-04 03:50:00,21.0,16.1,29.74,SW,227,0.0,1.0,81,0.00,,,0.00,WeatherCatV1.11B39,2013-02-04 08:50:00,
2013-02-04 03:55:00,20.8,15.9,29.74,SW,226,0.0,1.0,81,0.00,,,0.00,WeatherCatV1.11B39,2013-02-04 08:55:00,
2013-02-04 04:00:00,20.6,15.7,29.74,SSW,212,0.0,0.0,81,0.00,,,0.00,WeatherCatV1.11B39,2013-02-04 09:00:00,
2013-02-04 04:05:00,20.5,15.3,29.75,SSW,202,0.0,1.0,80,0.00,,,0.00,WeatherCatV1.11B39,2013-02-04 09:05:00,
2013-02-04 04:10:00,20.4,15.2,29.74,SSW,201,0.0,3.0,80,0.00,,,0.00,WeatherCatV1.11B39,2013-02-04 09:10:00,
2013-02-04 04:15:00,20.5,15.3,29.75,NNE,22,0.0,1.0,80,0.00,,,0.00,WeatherCatV1.11B39,2013-02-04 09:15:00,
2013-02-04 04:20:00,20.6,15.1,29.75,South,181,0.0,0.0,79,0.00,,,0.00,WeatherCatV1.11B39,2013-02-04 09:20:00,
2013-02-04 04:25:00,20.8,15.3,29.75,NW,326,1.0,1.0,79,0.00,,,0.00,WeatherCatV1.11B39,2013-02-04 09:25:00,
2013-02-04 04:30:00,20.9,15.1,29.75,NNW,348,0.0,1.0,78,0.00,,,0.00,WeatherCatV1.11B39,2013-02-04 09:30:00,
2013-02-04 04:35:00,21.1,15.3,29.75,North,349,1.0,1.0,78,0.00,,,0.00,WeatherCatV1.11B39,2013-02-04 09:35:00,
2013-02-04 04:40:00,21.1,15.3,29.75,SSW,195,0.0,1.0,78,0.00,,,0.00,WeatherCatV1.11B39,2013-02-04 09:40:00,
2013-02-04 04:45:00,21.1,15.0,29.75,SSW,203,0.0,1.0,77,0.00,,,0.00,WeatherCatV1.11B39,2013-02-04 09:45:00,
2013-02-04 04:50:00,21.1,15.0,29.75,SSW,203,0.0,0.0,77,0.00,,,0.00,WeatherCatV1.11B39,2013-02-04 09:50:00,
2013-02-04 04:55:00,21.0,14.9,29.75,WSW,243,0.0,2.0,77,0.00,,,0.00,WeatherCatV1.11B39,2013-02-04 09:55:00,
2013-02-04 05:00:00,21.1,14.7,29.75,SE,146,0.0,1.0,76,0.00,,,0.00,WeatherCatV1.11B39,2013-02-04 10:00:00,
2013-02-04 05:05:00,20.9,14.8,29.75,NW,315,0.0,2.0,77,0.00,,,0.00,WeatherCatV1.11B39,2013-02-04 10:05:00,
2013-02-04 05:10:00,20.8,14.7,29.75,SSE,162,0.0,0.0,77,0.00,,,0.00,WeatherCatV1.11B39,2013-02-04 10:10:00,
2013-02-04 05:15:00,20.6,14.6,29.75,SW,221,0.0,0.0,77,0.00,,,0.00,WeatherCatV1.11B39,2013-02-04 10:15:00,
2013-02-04 05:20:00,20.4,14.4,29.76,NW,325,0.0,1.0,77,0.00,,,0.00,WeatherCatV1.11B39,2013-02-04 10:20:00,
2013-02-04 05:25:00,20.3,14.3,29.76,West,260,0.0,1.0,77,0.00,,,0.00,WeatherCatV1.11B39,2013-02-04 10:25:00,
2013-02-04 05:30:00,20.2,14.2,29.76,SW,233,0.0,1.0,77,0.00,,,0.00,WeatherCatV1.11B39,2013-02-04 10:30:00,
2013-02-04 05:35:00,20.0,14.0,29.76,WSW,245,0.0,0.0,77,0.00,,,0.00,WeatherCatV1.11B39,2013-02-04 10:35:00,
2013-02-04 05:40:00,19.9,14.2,29.76,SSE,163,1.0,1.0,78,0.00,,,0.00,WeatherCatV1.11B39,2013-02-04 10:40:00,
2013-02-04 05:45:00,19.9,14.2,29.76,SW,221,0.0,0.0,78,0.00,,,0.00,WeatherCatV1.11B39,2013-02-04 10:45:00,
2013-02-04 05:50:00,19.8,14.1,29.76,SSE,160,0.0,0.0,78,0.00,,,0.00,WeatherCatV1.11B39,2013-02-04 10:50:00,
2013-02-04 05:55:00,19.7,14.0,29.76,West,276,0.0,2.0,78,0.00,,,0.00,WeatherCatV1.11B39,2013-02-04 10:55:00,
2013-02-04 06:00:00,19.8,14.1,29.77,NW,305,0.0,3.0,78,0.00,,,0.00,WeatherCatV1.11B39,2013-02-04 11:00:00,
2013-02-04 06:05:00,19.8,14.1,29.77,NNE,18,0.0,3.0,78,0.00,,,0.00,WeatherCatV1.11B39,2013-02-04 11:05:00,
2013-02-04 06:10:00,19.9,14.2,29.77,SSE,152,0.0,3.0,78,0.00,,,0.00,WeatherCatV1.11B39,2013-02-04 11:10:00,
2013-02-04 06:15:00,20.1,14.1,29.77,WSW,249,1.0,5.0,77,0.00,,,0.00,WeatherCatV1.11B39,2013-02-04 11:15:00,
2013-02-04 06:20:00,20.1,14.1,29.77,ESE,123,0.0,1.0,77,0.00,,,0.00,WeatherCatV1.11B39,2013-02-04 11:20:00,
2013-02-04 06:25:00,20.0,14.3,29.77,WSW,246,0.0,6.0,78,0.00,,,0.00,WeatherCatV1.11B39,2013-02-04 11:25:00,
2013-02-04 06:30:00,20.0,14.0,29.77,SSW,206,2.0,5.0,77,0.00,,,0.00,WeatherCatV1.11B39,2013-02-04 11:30:00,
2013-02-04 06:35:00,20.0,14.3,29.77,ESE,103,1.0,6.0,78,0.00,,,0.00,WeatherCatV1.11B39,2013-02-04 11:35:00,
2013-02-04 06:40:00,20.2,14.2,29.77,SSW,210,0.0,7.0,77,0.00,,,0.00,WeatherCatV1.11B39,2013-02-04 11:40:00,
2013-02-04 06:45:00,20.3,14.3,29.78,SW,235,2.0,3.0,77,0.00,,,0.00,WeatherCatV1.11B39,2013-02-04 11:45:00,
2013-02-04 06:50:00,20.4,14.4,29.78,SSW,196,0.0,2.0,77,0.00,,,0.00,WeatherCatV1.11B39,2013-02-04 11:50:00,
2013-02-04 06:55:00,20.4,14.4,29.78,SW,226,1.0,2.0,77,0.00,,,0.00,WeatherCatV1.11B39,2013-02-04 11:55:00,
2013-02-04 07:00:00,20.4,14.4,29.78,SW,217,3.0,3.0,77,0.00,,,0.00,WeatherCatV1.11B39,2013-02-04 12:00:00,
2013-02-04 07:05:00,20.4,14.4,29.78,SW,235,0.0,2.0,77,0.00,,,0.00,WeatherCatV1.11B39,2013-02-04 12:05:00,
2013-02-04 07:10:00,20.5,14.5,29.78,SW,227,0.0,5.0,77,0.00,,,0.00,WeatherCatV1.11B39,2013-02-04 12:10:00,
2013-02-04 07:15:00,20.6,14.3,29.78,SE,143,1.0,2.0,76,0.00,,,0.00,WeatherCatV1.11B39,2013-02-04 12:15:00,
2013-02-04 07:20:00,20.7,14.4,29.79,North,359,0.0,2.0,76,0.00,,,0.00,WeatherCatV1.11B39,2013-02-04 12:20:00,
2013-02-04 07:25:00,20.8,14.5,29.79,SE,146,0.0,1.0,76,0.00,,,0.00,WeatherCatV1.11B39,2013-02-04 12:25:00,
2013-02-04 07:30:00,20.9,14.5,29.79,SW,221,0.0,1.0,76,0.00,,,0.00,WeatherCatV1.11B39,2013-02-04 12:30:00,
2013-02-04 07:35:00,21.2,14.5,29.79,NE,39,0.0,3.0,75,0.00,,,0.00,WeatherCatV1.11B39,2013-02-04 12:35:00,
2013-02-04 07:40:00,21.3,14.6,29.80,West,274,0.0,1.0,75,0.00,,,0.00,WeatherCatV1.11B39,2013-02-04 12:40:00,
2013-02-04 07:45:00,21.5,14.8,29.80,NNE,16,1.0,5.0,75,0.00,,,0.00,WeatherCatV1.11B39,2013-02-04 12:45:00,
2013-02-04 07:50:00,21.7,14.7,29.79,NNW,335,0.0,4.0,74,0.00,,,0.00,WeatherCatV1.11B39,2013-02-04 12:50:00,
2013-02-04 07:55:00,22.0,15.0,29.79,SSW,210,1.0,3.0,74,0.00,,,0.00,WeatherCatV1.11B39,2013-02-04 12:55:00,
2013-02-04 08:00:00,22.3,15.0,29.79,SW,227,2.0,10.0,73,0.00,,,0.00,WeatherCatV1.11B39,2013-02-04 13:00:00,
2013-02-04 08:05:00,22.7,15.1,29.79,NW,316,2.0,6.0,72,0.00,,,0.00,WeatherCatV1.11B39,2013-02-04 13:05:00,
2013-02-04 08:10:00,22.9,14.9,29.80,SSW,211,0.0,3.0,71,0.00,,,0.00,WeatherCatV1.11B39,2013-02-04 13:10:00,
2013-02-04 08:15:00,23.2,14.9,29.80,South,169,2.0,3.0,70,0.00,,,0.00,WeatherCatV1.11B39,2013-02-04 13:15:00,
2013-02-04 08:20:00,23.5,15.2,29.80,SW,215,0.0,6.0,70,0.00,,,0.00,WeatherCatV1.11B39,2013-02-04 13:20:00,
2013-02-04 08:25:00,23.7,15.0,29.80,West,260,3.0,6.0,69,0.00,,,0.00,WeatherCatV1.11B39,2013-02-04 13:25:00,
2013-02-04 08:30:00,24.0,15.3,29.80,NE,41,2.0,5.0,69,0.00,,,0.00,WeatherCatV1.11B39,2013-02-04 13:30:00,
2013-02-04 08:35:00,24.2,15.2,29.80,ENE,69,1.0,7.0,68,0.00,,,0.00,WeatherCatV1.11B39,2013-02-04 13:35:00,
2013-02-04 08:40:00,24.4,15.0,29.80,SW,233,0.0,3.0,67,0.00,,,0.00,WeatherCatV1.11B39,2013-02-04 13:40:00,
2013-02-04 08:45:00,24.5,14.8,29.80,SW,225,4.0,6.0,66,0.00,,,0.00,WeatherCatV1.11B39,2013-02-04 13:45:00,
2013-02-04 08:50:00,24.7,15.0,29.80,SW,227,3.0,6.0,66,0.00,,,0.00,WeatherCatV1.11B39,2013-02-04 13:50:00,
2013-02-04 08:55:00,24.9,14.8,29.80,SW,226,2.0,2.0,65,0.00,,,0.00,WeatherCatV1.11B39,2013-02-04 13:55:00,
2013-02-04 09:00:00,25.2,14.8,29.80,SSW,210,0.0,5.0,64,0.00,,,0.00,WeatherCatV1.11B39,2013-02-04 14:00:00,
2013-02-04 09:05:00,25.4,14.2,29.80,SW,215,0.0,5.0,62,0.00,,,0.00,WeatherCatV1.11B39,2013-02-04 14:05:00,
2013-02-04 09:10:00,25.8,14.2,29.80,North,1,4.0,4.0,61,0.00,,,0.00,WeatherCatV1.11B39,2013-02-04 14:10:00,
2013-02-04 09:15:00,26.4,14.4,29.80,WSW,243,1.0,3.0,60,0.00,,,0.00,WeatherCatV1.11B39,2013-02-04 14:15:00,
2013-02-04 09:20:00,26.6,13.4,29.80,NNW,332,4.0,4.0,57,0.00,,,0.00,WeatherCatV1.11B39,2013-02-04 14:20:00,
2013-02-04 09:25:00,26.7,12.7,29.80,North,0,5.0,6.0,55,0.00,,,0.00,WeatherCatV1.11B39,2013-02-04 14:25:00,
2013-02-04 09:30:00,26.8,12.8,29.80,WNW,294,1.0,9.0,55,0.00,,,0.00,WeatherCatV1.11B39,2013-02-04 14:30:00,
2013-02-04 09:35:00,26.9,12.5,29.80,ESE,114,1.0,6.0,54,0.00,,,0.00,WeatherCatV1.11B39,2013-02-04 14:35:00,
2013-02-04 09:40:00,27.2,13.2,29.81,WNW,300,1.0,5.0,55,0.00,,,0.00,WeatherCatV1.11B39,2013-02-04 14:40:00,
2013-02-04 09:45:00,27.3,12.9,29.81,North,354,1.0,9.0,54,0.00,,,0.00,WeatherCatV1.11B39,2013-02-04 14:45:00,
2013-02-04 09:50:00,27.6,13.2,29.81,NNW,327,2.0,7.0,54,0.00,,,0.00,WeatherCatV1.11B39,2013-02-04 14:50:00,
2013-02-04 09:55:00,27.5,13.1,29.81,SW,222,2.0,2.0,54,0.00,,,0.00,WeatherCatV1.11B39,2013-02-04 14:55:00,
2013-02-04 10:00:00,27.4,12.5,29.80,NNW,347,1.0,5.0,53,0.00,,,0.00,WeatherCatV1.11B39,2013-02-04 15:00:00,
2013-02-04 10:05:00,27.7,12.8,29.81,South,191,1.0,4.0,53,0.00,,,0.00,WeatherCatV1.11B39,2013-02-04 15:05:00,
2013-02-04 10:10:00,27.9,12.6,29.81,NW,314,3.0,6.0,52,0.00,,,0.00,WeatherCatV1.11B39,2013-02-04 15:10:00,
2013-02-04 10:15:00,27.9,12.6,29.81,SSW,195,1.0,7.0,52,0.00,,,0.00,WeatherCatV1.11B39,2013-02-04 15:15:00,
2013-02-04 10:20:00,27.8,12.5,29.81,ENE,75,1.0,4.0,52,0.00,,,0.00,WeatherCatV1.11B39,2013-02-04 15:20:00,
2013-02-04 10:25:00,28.1,12.8,29.81,South,187,4.0,6.0,52,0.00,,,0.00,WeatherCatV1.11B39,2013-02-04 15:25:00,
2013-02-04 10:30:00,28.2,12.4,29.81,SW,233,7.0,8.0,51,0.00,,,0.00,WeatherCatV1.11B39,2013-02-04 15:30:00,
2013-02-04 10:35:00,28.1,11.4,29.80,SSE,156,1.0,9.0,49,0.00,,,0.00,WeatherCatV1.11B39,2013-02-04 15:35:00,
2013-02-04 10:40:00,28.2,12.0,29.80,SSW,203,3.0,11.0,50,0.00,,,0.00,WeatherCatV1.11B39,2013-02-04 15:40:00,
2013-02-04 10:45:00,28.5,11.3,29.80,SW,226,2.0,12.0,48,0.00,,,0.00,WeatherCatV1.11B39,2013-02-04 15:45:00,
2013-02-04 10:50:00,28.6,11.0,29.80,NNE,25,3.0,5.0,47,0.00,,,0.00,WeatherCatV1.11B39,2013-02-04 15:50:00,
2013-02-04 10:55:00,28.9,10.8,29.80,SW,233,4.0,10.0,46,0.00,,,0.00,WeatherCatV1.11B39,2013-02-04 15:55:00,
2013-02-04 11:00:00,28.9,10.8,29.81,WSW,239,2.0,6.0,46,0.00,,,0.00,WeatherCatV1.11B39,2013-02-04 16:00:00,
2013-02-04 11:05:00,28.4,10.8,29.81,WNW,300,3.0,7.0,47,0.00,,,0.00,WeatherCatV1.11B39,2013-02-04 16:05:00,
2013-02-04 11:10:00,28.0,9.9,29.80,NNW,333,3.0,16.0,46,0.00,,,0.00,WeatherCatV1.11B39,2013-02-04 16:10:00,
2013-02-04 11:15:00,27.8,10.2,29.81,NNE,19,1.0,2.0,47,0.00,,,0.00,WeatherCatV1.11B39,2013-02-04 16:15:00,
2013-02-04 11:20:00,28.0,9.9,29.80,East,84,2.0,9.0,46,0.00,,,0.00,WeatherCatV1.11B39,2013-02-04 16:20:00,
2013-02-04 11:25:00,28.1,10.5,29.80,North,1,1.0,7.0,47,0.00,,,0.00,WeatherCatV1.11B39,2013-02-04 16:25:00,
2013-02-04 11:30:00,28.7,10.6,29.80,SE,146,2.0,3.0,46,0.00,,,0.00,WeatherCatV1.11B39,2013-02-04 16:30:00,
2013-02-04 11:35:00,29.4,10.2,29.79,SSW,197,1.0,9.0,44,0.00,,,0.00,WeatherCatV1.11B39,2013-02-04 16:35:00,
2013-02-04 11:40:00,29.3,9.6,29.80,WSW,238,1.0,7.0,43,0.00,,,0.00,WeatherCatV1.11B39,2013-02-04 16:40:00,
2013-02-04 11:45:00,29.2,10.0,29.79,SSE,157,3.0,3.0,44,0.00,,,0.00,WeatherCatV1.11B39,2013-02-04 16:45:00,
2013-02-04 11:50:00,29.7,10.0,29.80,West,276,3.0,5.0,43,0.00,,,0.00,WeatherCatV1.11B39,2013-02-04 16:50:00,
2013-02-04 11:55:00,29.7,9.4,29.79,NE,55,2.0,11.0,42,0.00,,,0.00,WeatherCatV1.11B39,2013-02-04 16:55:00,
2013-02-04 12:00:00,29.3,9.1,29.79,SW,236,4.0,5.0,42,0.00,,,0.00,WeatherCatV1.11B39,2013-02-04 17:00:00,
2013-02-04 12:05:00,29.3,9.6,29.79,WNW,294,2.0,5.0,43,0.00,,,0.00,WeatherCatV1.11B39,2013-02-04 17:05:00,
2013-02-04 12:10:00,29.5,9.8,29.79,NE,46,1.0,8.0,43,0.00,,,0.00,WeatherCatV1.11B39,2013-02-04 17:10:00,
2013-02-04 12:15:00,29.8,9.5,29.79,SW,219,2.0,8.0,42,0.00,,,0.00,WeatherCatV1.11B39,2013-02-04 17:15:00,
2013-02-04 12:20:00,29.6,9.9,29.79,WNW,287,4.0,7.0,43,0.00,,,0.00,WeatherCatV1.11B39,2013-02-04 17:20:00,
2013-02-04 12:25:00,29.7,9.4,29.79,South,181,10.0,13.0,42,0.00,,,0.00,WeatherCatV1.11B39,2013-02-04 17:25:00,
2013-02-04 12:30:00,29.7,10.0,29.78,NW,304,3.0,7.0,43,0.00,,,0.00,WeatherCatV1.11B39,2013-02-04 17:30:00,
2013-02-04 12:35:00,29.7,10.5,29.79,NNW,327,2.0,3.0,44,0.00,,,0.00,WeatherCatV1.11B39,2013-02-04 17:35:00,
2013-02-04 12:40:00,29.8,9.0,29.79,WNW,290,3.0,8.0,41,0.00,,,0.00,WeatherCatV1.11B39,2013-02-04 17:40:00,
2013-02-04 12:45:00,29.4,8.6,29.78,SSE,149,2.0,14.0,41,0.00,,,0.00,WeatherCatV1.11B39,2013-02-04 17:45:00,
2013-02-04 12:50:00,29.3,8.0,29.78,NNE,16,1.0,8.0,40,0.00,,,0.00,WeatherCatV1.11B39,2013-02-04 17:50:00,
2013-02-04 12:55:00,29.4,8.6,29.78,ENE,60,4.0,8.0,41,0.00,,,0.00,WeatherCatV1.11B39,2013-02-04 17:55:00,
2013-02-04 13:00:00,29.5,8.7,29.79,SW,232,13.0,13.0,41,0.00,,,0.00,WeatherCatV1.11B39,2013-02-04 18:00:00,
2013-02-04 13:05:00,29.2,9.5,29.79,South,175,4.0,6.0,43,0.00,,,0.00,WeatherCatV1.11B39,2013-02-04 18:05:00,
2013-02-04 13:10:00,28.9,9.2,29.79,NW,307,1.0,4.0,43,0.00,,,0.00,WeatherCatV1.11B39,2013-02-04 18:10:00,
2013-02-04 13:15:00,28.5,9.9,29.79,SSW,211,0.0,1.0,45,0.00,,,0.00,WeatherCatV1.11B39,2013-02-04 18:15:00,
2013-02-04 13:20:00,28.2,9.6,29.79,SSW,210,7.0,7.0,45,0.00,,,0.00,WeatherCatV1.11B39,2013-02-04 18:20:00,
2013-02-04 13:25:00,28.0,9.4,29.79,SSW,213,2.0,7.0,45,0.00,,,0.00,WeatherCatV1.11B39,2013-02-04 18:25:00,
2013-02-04 13:30:00,28.0,9.4,29.79,NW,315,6.0,7.0,45,0.00,,,0.00,WeatherCatV1.11B39,2013-02-04 18:30:00,
2013-02-04 13:35:00,27.9,9.3,29.79,SSE,152,6.0,8.0,45,0.00,,,0.00,WeatherCatV1.11B39,2013-02-04 18:35:00,
2013-02-04 13:40:00,27.8,9.7,29.79,NNW,346,4.0,6.0,46,0.00,,,0.00,WeatherCatV1.11B39,2013-02-04 18:40:00,
2013-02-04 13:45:00,27.9,9.3,29.79,SSW,198,0.0,6.0,45,0.00,,,0.00,WeatherCatV1.11B39,2013-02-04 18:45:00,
2013-02-04 13:50:00,28.6,9.0,29.79,SW,214,2.0,6.0,43,0.00,,,0.00,WeatherCatV1.11B39,2013-02-04 18:50:00,
2013-02-04 13:55:00,29.1,8.9,29.79,South,184,2.0,8.0,42,0.00,,,0.00,WeatherCatV1.11B39,2013-02-04 18:55:00,
2013-02-04 14:00:00,29.2,8.5,29.79,South,177,1.0,18.0,41,0.00,,,0.00,WeatherCatV1.11B39,2013-02-04 19:00:00,
2013-02-04 14:05:00,29.1,8.9,29.79,SW,226,8.0,13.0,42,0.00,,,0.00,WeatherCatV1.11B39,2013-02-04 19:05:00,
2013-02-04 14:10:00,29.0,8.8,29.80,NNW,331,4.0,7.0,42,0.00,,,0.00,WeatherCatV1.11B39,2013-02-04 19:10:00,
2013-02-04 14:15:00,29.2,9.5,29.80,NNE,26,5.0,8.0,43,0.00,,,0.00,WeatherCatV1.11B39,2013-02-04 19:15:00,
2013-02-04 14:20:00,29.4,9.7,29.80,North,356,6.0,6.0,43,0.00,,,0.00,WeatherCatV1.11B39,2013-02-04 19:20:00,
2013-02-04 14:25:00,29.3,9.1,29.80,NNE,28,2.0,8.0,42,0.00,,,0.00,WeatherCatV1.11B39,2013-02-04 19:25:00,
2013-02-04 14:30:00,29.4,9.7,29.79,West,276,2.0,3.0,43,0.00,,,0.00,WeatherCatV1.11B39,2013-02-04 19:30:00,
2013-02-04 14:35:00,30.2,9.9,29.79,NNW,337,3.0,7.0,42,0.00,,,0.00,WeatherCatV1.11B39,2013-02-04 19:35:00,
2013-02-04 14:40:00,30.0,9.2,29.80,North,349,4.0,8.0,41,0.00,,,0.00,WeatherCatV1.11B39,2013-02-04 19:40:00,
2013-02-04 14:45:00,30.1,8.2,29.80,North,358,8.0,10.0,39,0.00,,,0.00,WeatherCatV1.11B39,2013-02-04 19:45:00,
2013-02-04 14:50:00,30.4,8.4,29.81,ESE,111,1.0,5.0,39,0.00,,,0.00,WeatherCatV1.11B39,2013-02-04 19:50:00,
2013-02-04 14:55:00,30.1,8.2,29.81,South,181,0.0,9.0,39,0.00,,,0.00,WeatherCatV1.11B39,2013-02-04 19:55:00,
2013-02-04 15:00:00,29.5,7.6,29.81,SW,225,5.0,7.0,39,0.00,,,0.00,WeatherCatV1.11B39,2013-02-04 20:00:00,
2013-02-04 15:05:00,29.3,7.4,29.81,WSW,246,5.0,5.0,39,0.00,,,0.00,WeatherCatV1.11B39,2013-02-04 20:05:00,
2013-02-04 15:10:00,29.3,7.4,29.81,South,179,2.0,8.0,39,0.00,,,0.00,WeatherCatV1.11B39,2013-02-04 20:10:00,
2013-02-04 15:15:00,29.5,8.2,29.81,WNW,298,0.0,6.0,40,0.00,,,0.00,WeatherCatV1.11B39,2013-02-04 20:15:00,
2013-02-04 15:20:00,30.0,7.5,29.81,NW,326,2.0,4.0,38,0.00,,,0.00,WeatherCatV1.11B39,2013-02-04 20:20:00,
2013-02-04 15:25:00,30.0,6.9,29.81,East,85,3.0,13.0,37,0.00,,,0.00,WeatherCatV1.11B39,2013-02-04 20:25:00,
2013-02-04 15:30:00,29.4,6.4,29.81,SSE,150,2.0,5.0,37,0.00,,,0.00,WeatherCatV1.11B39,2013-02-04 20:30:00,
2013-02-04 15:35:00,29.1,6.1,29.81,ESE,112,0.0,7.0,37,0.00,,,0.00,WeatherCatV1.11B39,2013-02-04 20:35:00,
2013-02-04 15:40:00,29.0,6.0,29.82,South,180,0.0,6.0,37,0.00,,,0.00,WeatherCatV1.11B39,2013-02-04 20:40:00,
2013-02-04 15:45:00,29.2,6.8,29.81,WNW,294,2.0,3.0,38,0.00,,,0.00,WeatherCatV1.11B39,2013-02-04 20:45:00,
2013-02-04 15:50:00,29.3,6.9,29.81,NE,40,1.0,5.0,38,0.00,,,0.00,WeatherCatV1.11B39,2013-02-04 20:50:00,
2013-02-04 15:55:00,29.5,7.1,29.81,SSW,211,1.0,2.0,38,0.00,,,0.00,WeatherCatV1.11B39,2013-02-04 20:55:00,
2013-02-04 16:00:00,29.7,7.2,29.81,ESE,116,2.0,4.0,38,0.00,,,0.00,WeatherCatV1.11B39,2013-02-04 21:00:00,
2013-02-04 16:05:00,29.7,7.2,29.81,North,352,2.0,9.0,38,0.00,,,0.00,WeatherCatV1.11B39,2013-02-04 21:05:00,
2013-02-04 16:10:00,29.9,7.4,29.81,ESE,117,1.0,2.0,38,0.00,,,0.00,WeatherCatV1.11B39,2013-02-04 21:10:00,
2013-02-04 16:15:00,29.6,7.7,29.81,SW,217,4.0,8.0,39,0.00,,,0.00,WeatherCatV1.11B39,2013-02-04 21:15:00,
2013-02-04 16:20:00,28.9,7.6,29.81,ESE,113,3.0,10.0,40,0.00,,,0.00,WeatherCatV1.11B39,2013-02-04 21:20:00,
2013-02-04 16:25:00,28.4,7.2,29.81,NNW,344,2.0,9.0,40,0.00,,,0.00,WeatherCatV1.11B39,2013-02-04 21:25:00,
2013-02-04 16:30:00,28.0,7.4,29.82,SSW,207,0.0,9.0,41,0.00,,,0.00,WeatherCatV1.11B39,2013-02-04 21:30:00,
2013-02-04 16:36:00,27.7,7.6,29.82,West,273,1.0,5.0,42,0.00,,,0.00,WeatherCatV1.11B39,2013-02-04 21:36:00,
2013-02-04 16:41:00,27.5,7.5,29.82,NNE,20,1.0,7.0,42,0.00,,,0.00,WeatherCatV1.11B39,2013-02-04 21:41:00,
2013-02-04 16:46:00,27.3,7.8,29.82,NNW,337,1.0,2.0,43,0.00,,,0.00,WeatherCatV1.11B39,2013-02-04 21:46:00,
2013-02-04 16:51:00,27.1,7.6,29.83,East,80,5.0,6.0,43,0.00,,,0.00,WeatherCatV1.11B39,2013-02-04 21:51:00,
2013-02-04 16:56:00,26.9,6.9,29.83,NNE,23,3.0,5.0,42,0.00,,,0.00,WeatherCatV1.11B39,2013-02-04 21:56:00,
2013-02-04 17:01:00,26.6,6.1,29.83,East,94,2.0,8.0,41,0.00,,,0.00,WeatherCatV1.11B39,2013-02-04 22:01:00,
2013-02-04 17:06:00,26.5,6.0,29.83,SW,217,1.0,8.0,41,0.00,,,0.00,WeatherCatV1.11B39,2013-02-04 22:06:00,
2013-02-04 17:11:00,26.3,5.8,29.83,SW,231,2.0,5.0,41,0.00,,,0.00,WeatherCatV1.11B39,2013-02-04 22:11:00,
2013-02-04 17:16:00,26.1,6.2,29.83,North,1,1.0,4.0,42,0.00,,,0.00,WeatherCatV1.11B39,2013-02-04 22:16:00,
2013-02-04 17:21:00,26.0,6.6,29.84,NE,41,3.0,6.0,43,0.00,,,0.00,WeatherCatV1.11B39,2013-02-04 22:21:00,
2013-02-04 17:26:00,25.9,6.0,29.84,SSW,203,0.0,3.0,42,0.00,,,0.00,WeatherCatV1.11B39,2013-02-04 22:26:00,
2013-02-04 17:31:00,25.8,5.9,29.84,NW,323,1.0,9.0,42,0.00,,,0.00,WeatherCatV1.11B39,2013-02-04 22:31:00,
2013-02-04 17:36:00,25.7,6.3,29.85,West,271,0.0,3.0,43,0.00,,,0.00,WeatherCatV1.11B39,2013-02-04 22:36:00,
2013-02-04 17:41:00,25.7,5.3,29.85,NNW,343,2.0,10.0,41,0.00,,,0.00,WeatherCatV1.11B39,2013-02-04 22:41:00,
2013-02-04 17:46:00,25.6,4.7,29.85,North,354,3.0,5.0,40,0.00,,,0.00,WeatherCatV1.11B39,2013-02-04 22:46:00,
2013-02-04 17:51:00,25.5,4.6,29.85,SE,138,1.0,4.0,40,0.00,,,0.00,WeatherCatV1.11B39,2013-02-04 22:51:00,
2013-02-04 17:56:00,25.4,5.0,29.86,SSW,212,2.0,5.0,41,0.00,,,0.00,WeatherCatV1.11B39,2013-02-04 22:56:00,
2013-02-04 18:01:00,25.4,5.0,29.86,NNE,18,1.0,7.0,41,0.00,,,0.00,WeatherCatV1.11B39,2013-02-04 23:01:00,
2013-02-04 18:06:00,25.3,4.9,29.86,NNE,29,6.0,7.0,41,0.00,,,0.00,WeatherCatV1.11B39,2013-02-04 23:06:00,
2013-02-04 18:11:00,25.2,4.8,29.86,SW,218,1.0,7.0,41,0.00,,,0.00,WeatherCatV1.11B39,2013-02-04 23:11:00,
2013-02-04 18:16:00,25.1,4.8,29.87,ENE,73,3.0,6.0,41,0.00,,,0.00,WeatherCatV1.11B39,2013-02-04 23:16:00,
2013-02-04 18:21:00,25.1,4.8,29.87,North,354,5.0,5.0,41,0.00,,,0.00,WeatherCatV1.11B39,2013-02-04 23:21:00,
2013-02-04 18:26:00,25.1,4.2,29.87,NW,325,2.0,4.0,40,0.00,,,0.00,WeatherCatV1.11B39,2013-02-04 23:26:00,
2013-02-04 18:31:00,25.1,4.2,29.88,South,179,1.0,4.0,40,0.00,,,0.00,WeatherCatV1.11B39,2013-02-04 23:31:00,
2013-02-04 18:36:00,25.0,4.7,29.88,SSW,211,1.0,5.0,41,0.00,,,0.00,WeatherCatV1.11B39,2013-02-04 23:36:00,
2013-02-04 18:41:00,24.9,5.1,29.88,SE,143,1.0,2.0,42,0.00,,,0.00,WeatherCatV1.11B39,2013-02-04 23:41:00,
2013-02-04 18:46:00,24.8,4.5,29.88,ESE,110,4.0,6.0,41,0.00,,,0.00,WeatherCatV1.11B39,2013-02-04 23:46:00,
2013-02-04 18:51:00,24.7,4.9,29.88,ESE,121,2.0,2.0,42,0.00,,,0.00,WeatherCatV1.11B39,2013-02-04 23:51:00,
2013-02-04 18:56:00,24.5,5.7,29.89,SW,214,1.0,2.0,44,0.00,,,0.00,WeatherCatV1.11B39,2013-02-04 23:56:00,
2013-02-04 19:01:00,24.3,5.6,29.89,South,188,0.0,3.0,44,0.00,,,0.00,WeatherCatV1.11B39,2013-02-05 00:01:00,
2013-02-04 19:06:00,24.3,5.6,29.89,SSE,156,0.0,3.0,44,0.00,,,0.00,WeatherCatV1.11B39,2013-02-05 00:06:00,
2013-02-04 19:11:00,24.2,6.0,29.89,ESE,118,0.0,1.0,45,0.00,,,0.00,WeatherCatV1.11B39,2013-02-05 00:11:00,
2013-02-04 19:16:00,24.2,6.0,29.90,South,174,0.0,2.0,45,0.00,,,0.00,WeatherCatV1.11B39,2013-02-05 00:16:00,
2013-02-04 19:21:00,24.0,6.3,29.90,West,269,0.0,2.0,46,0.00,,,0.00,WeatherCatV1.11B39,2013-02-05 00:21:00,
2013-02-04 19:26:00,24.0,5.8,29.90,SSW,210,3.0,7.0,45,0.00,,,0.00,WeatherCatV1.11B39,2013-02-05 00:26:00,
2013-02-04 19:31:00,24.0,6.3,29.90,West,278,1.0,4.0,46,0.00,,,0.00,WeatherCatV1.11B39,2013-02-05 00:31:00,
2013-02-04 19:36:00,23.9,6.2,29.90,WSW,240,0.0,4.0,46,0.00,,,0.00,WeatherCatV1.11B39,2013-02-05 00:36:00,
2013-02-04 19:41:00,23.9,6.6,29.90,SSW,207,3.0,3.0,47,0.00,,,0.00,WeatherCatV1.11B39,2013-02-05 00:41:00,
2013-02-04 19:46:00,23.8,6.5,29.90,South,171,1.0,1.0,47,0.00,,,0.00,WeatherCatV1.11B39,2013-02-05 00:46:00,
2013-02-04 19:51:00,23.7,6.5,29.91,SW,232,0.0,5.0,47,0.00,,,0.00,WeatherCatV1.11B39,2013-02-05 00:51:00,
2013-02-04 19:56:00,23.6,6.8,29.91,SW,215,3.0,3.0,48,0.00,,,0.00,WeatherCatV1.11B39,2013-02-05 00:56:00,
2013-02-04 20:01:00,23.5,6.7,29.91,WSW,244,1.0,4.0,48,0.00,,,0.00,WeatherCatV1.11B39,2013-02-05 01:01:00,
2013-02-04 20:06:00,23.5,6.7,29.91,ENE,59,1.0,3.0,48,0.00,,,0.00,WeatherCatV1.11B39,2013-02-05 01:06:00,
2013-02-04 20:11:00,23.4,6.6,29.91,NNW,345,2.0,4.0,48,0.00,,,0.00,WeatherCatV1.11B39,2013-02-05 01:11:00,
2013-02-04 20:16:00,23.4,7.1,29.91,NNW,335,3.0,5.0,49,0.00,,,0.00,WeatherCatV1.11B39,2013-02-05 01:16:00,
2013-02-04 20:21:00,23.3,7.0,29.92,North,359,0.0,3.0,49,0.00,,,0.00,WeatherCatV1.11B39,2013-02-05 01:21:00,
2013-02-04 20:26:00,23.2,6.9,29.92,SSW,196,0.0,2.0,49,0.00,,,0.00,WeatherCatV1.11B39,2013-02-05 01:26:00,
2013-02-04 20:31:00,23.1,6.8,29.92,NE,38,0.0,3.0,49,0.00,,,0.00,WeatherCatV1.11B39,2013-02-05 01:31:00,
2013-02-04 20:36:00,23.0,7.2,29.92,NNW,338,3.0,3.0,50,0.00,,,0.00,WeatherCatV1.11B39,2013-02-05 01:36:00,
2013-02-04 20:41:00,22.9,7.1,29.92,SSW,208,1.0,3.0,50,0.00,,,0.00,WeatherCatV1.11B39,2013-02-05 01:41:00,
2013-02-04 20:46:00,22.8,7.0,29.91,West,269,0.0,2.0,50,0.00,,,0.00,WeatherCatV1.11B39,2013-02-05 01:46:00,
2013-02-04 20:51:00,22.8,7.4,29.92,NW,326,0.0,3.0,51,0.00,,,0.00,WeatherCatV1.11B39,2013-02-05 01:51:00,
2013-02-04 20:56:00,22.7,7.3,29.92,SW,232,1.0,4.0,51,0.00,,,0.00,WeatherCatV1.11B39,2013-02-05 01:56:00,
2013-02-04 21:01:00,22.7,7.3,29.92,NW,311,1.0,3.0,51,0.00,,,0.00,WeatherCatV1.11B39,2013-02-05 02:01:00,
2013-02-04 21:06:00,22.7,7.3,29.92,SSW,207,1.0,4.0,51,0.00,,,0.00,WeatherCatV1.11B39,2013-02-05 02:06:00,
2013-02-04 21:11:00,22.6,7.2,29.92,SSE,165,1.0,4.0,51,0.00,,,0.00,WeatherCatV1.11B39,2013-02-05 02:11:00,
2013-02-04 21:16:00,22.6,6.8,29.92,West,264,1.0,4.0,50,0.00,,,0.00,WeatherCatV1.11B39,2013-02-05 02:16:00,
2013-02-04 21:21:00,22.5,6.7,29.93,SW,219,1.0,3.0,50,0.00,,,0.00,WeatherCatV1.11B39,2013-02-05 02:21:00,
2013-02-04 21:26:00,22.5,6.7,29.93,South,171,0.0,4.0,50,0.00,,,0.00,WeatherCatV1.11B39,2013-02-05 02:26:00,
2013-02-04 21:31:00,22.4,6.6,29.93,SW,222,3.0,4.0,50,0.00,,,0.00,WeatherCatV1.11B39,2013-02-05 02:31:00,
2013-02-04 21:36:00,22.4,6.6,29.93,SSE,163,2.0,7.0,50,0.00,,,0.00,WeatherCatV1.11B39,2013-02-05 02:36:00,
2013-02-04 21:41:00,22.3,6.5,29.94,NNW,340,1.0,4.0,50,0.00,,,0.00,WeatherCatV1.11B39,2013-02-05 02:41:00,
2013-02-04 21:46:00,22.3,6.5,29.94,WSW,258,1.0,3.0,50,0.00,,,0.00,WeatherCatV1.11B39,2013-02-05 02:46:00,
2013-02-04 21:51:00,22.3,6.5,29.94,NNE,15,0.0,1.0,50,0.00,,,0.00,WeatherCatV1.11B39,2013-02-05 02:51:00,
2013-02-04 21:56:00,22.2,6.4,29.94,SSW,206,1.0,4.0,50,0.00,,,0.00,WeatherCatV1.11B39,2013-02-05 02:56:00,
2013-02-04 22:01:00,22.1,6.8,29.94,SW,233,0.0,1.0,51,0.00,,,0.00,WeatherCatV1.11B39,2013-02-05 03:01:00,
2013-02-04 22:06:00,22.0,6.7,29.94,SSW,193,2.0,2.0,51,0.00,,,0.00,WeatherCatV1.11B39,2013-02-05 03:06:00,
2013-02-04 22:11:00,21.9,6.6,29.94,WSW,243,2.0,3.0,51,0.00,,,0.00,WeatherCatV1.11B39,2013-02-05 03:11:00,
2013-02-04 22:16:00,21.8,6.5,29.94,SSE,163,3.0,3.0,51,0.00,,,0.00,WeatherCatV1.11B39,2013-02-05 03:16:00,
2013-02-04 22:21:00,21.8,6.5,29.93,SSE,152,0.0,2.0,51,0.00,,,0.00,WeatherCatV1.11B39,2013-02-05 03:21:00,
2013-02-04 22:26:00,21.7,6.8,29.94,SSE,162,1.0,2.0,52,0.00,,,0.00,WeatherCatV1.11B39,2013-02-05 03:26:00,
2013-02-04 22:31:00,21.5,7.1,29.94,SW,218,0.0,3.0,53,0.00,,,0.00,WeatherCatV1.11B39,2013-02-05 03:31:00,
2013-02-04 22:36:00,21.4,7.0,29.94,SW,217,1.0,2.0,53,0.00,,,0.00,WeatherCatV1.11B39,2013-02-05 03:36:00,
2013-02-04 22:41:00,21.3,7.3,29.94,SSE,155,1.0,3.0,54,0.00,,,0.00,WeatherCatV1.11B39,2013-02-05 03:41:00,
2013-02-04 22:46:00,21.1,7.1,29.94,NW,306,0.0,1.0,54,0.00,,,0.00,WeatherCatV1.11B39,2013-02-05 03:46:00,
2013-02-04 22:51:00,21.0,7.4,29.94,SW,231,0.0,0.0,55,0.00,,,0.00,WeatherCatV1.11B39,2013-02-05 03:51:00,
2013-02-04 22:56:00,20.8,7.6,29.94,SSE,163,1.0,3.0,56,0.00,,,0.00,WeatherCatV1.11B39,2013-02-05 03:56:00,
2013-02-04 23:01:00,20.7,7.5,29.95,NNW,338,0.0,0.0,56,0.00,,,0.00,WeatherCatV1.11B39,2013-02-05 04:01:00,
2013-02-04 23:06:00,20.6,7.4,29.95,SW,225,1.0,1.0,56,0.00,,,0.00,WeatherCatV1.11B39,2013-02-05 04:06:00,
2013-02-04 23:11:00,20.6,7.4,29.95,South,175,1.0,3.0,56,0.00,,,0.00,WeatherCatV1.11B39,2013-02-05 04:11:00,
2013-02-04 23:16:00,20.5,7.7,29.95,SSW,212,0.0,3.0,57,0.00,,,0.00,WeatherCatV1.11B39,2013-02-05 04:16:00,
2013-02-04 23:21:00,20.5,7.3,29.95,SW,217,0.0,3.0,56,0.00,,,0.00,WeatherCatV1.11B39,2013-02-05 04:21:00,
2013-02-04 23:26:00,20.5,7.7,29.95,North,356,1.0,1.0,57,0.00,,,0.00,WeatherCatV1.11B39,2013-02-05 04:26:00,
2013-02-04 23:31:00,20.4,7.2,29.95,ESE,108,1.0,5.0,56,0.00,,,0.00,WeatherCatV1.11B39,2013-02-05 04:31:00,
2013-02-04 23:36:00,20.4,7.2,29.95,NE,34,2.0,5.0,56,0.00,,,0.00,WeatherCatV1.11B39,2013-02-05 04:36:00,
2013-02-04 23:41:00,20.4,7.6,29.95,SW,217,0.0,2.0,57,0.00,,,0.00,WeatherCatV1.11B39,2013-02-05 04:41:00,
2013-02-04 23:46:00,20.4,7.6,29.95,SW,217,1.0,3.0,57,0.00,,,0.00,WeatherCatV1.11B39,2013-02-05 04:46:00,
2013-02-04 23:51:00,20.3,7.5,29.96,SSE,153,0.0,6.0,57,0.00,,,0.00,WeatherCatV1.11B39,2013-02-05 04:51:00,
2013-02-04 23:56:00,20.2,7.8,29.96,SW,227,0.0,3.0,58,0.00,,,0.00,WeatherCatV1.11B39,2013-02-05 04:56:00,